Regional Weather Roundup
Issued by NWS

Home | Current Version | Previous Version | Graphics & Text | Print | Product List | Glossary On
Versions: 1 2 3 4 5 6 7 8 9 10 11 12 13 14 15 16 17 18 19 20 21 22 23 24 25 26 27 28 29 30 31 32 33 34 35 36 37 38 39 40 41 42 43 44 45 46 47 48 49 50
505
ASUS44 KLIX 230205
RWRLA
LOUISIANA WEATHER ROUNDUP
NATIONAL WEATHER SERVICE NEW ORLEANS LA
800 PM CST MON DEC 22 2014

NOTE: "FAIR" INDICATES FEW OR NO CLOUDS BELOW 12,000 FEET WITH NO
      SIGNIFICANT WEATHER AND/OR OBSTRUCTIONS TO VISIBILITY.
      SKY/WX - SKY CONDITION AND SIGNIFICANT WEATHER.
      TMP - AIR TEMPERATURE.    DP   - DEWPOINT TEMPERATURE.
      RH  - RELATIVE HUMIDITY.  PRES - PRESSURE.
      HX  - HEAT INDEX.         WCI  - WIND CHILL INDEX.

*  THESE STATIONS ARE NOT NWS OR FAA STATIONS AND ARE NOT UNDER
   NWS QUALITY CONTROL.

LAZ040-048-061>063-065-066-069-230300-
SOUTHEAST LOUISIANA

CITY           SKY/WX    TMP DP  RH WIND       PRES   REMARKS
N.O. AUDUBON     N/A     70  67  90 MISG        N/A
N.O. INTL ARPT CLOUDY    70  67  90 S13       29.74R FOG
N.O. LAKEFRONT CLOUDY    71  66  84 S13       29.74R
N.O. DOWNTOWN* CLOUDY    70  64  83 S9        29.75R
SLIDELL        CLOUDY    70  67  90 SW6       29.73R
BATON ROUGE    MOCLDY    69  64  84 S9        29.70R
BOOTHVILLE     CLEAR     68  67  96 S10       29.77S FOG
BELLE CHASSE   CLOUDY    70  67  90 S13       29.74R
BOGALUSA*        N/A     69  65  86 S7        29.74S
GALLIANO*      MOCLDY    69  67  93 MISG      29.75S FOG
NEW ROADS*     FAIR      67  64  90 S7        29.69S
GONZALES*      FAIR      67  67 100 S6        29.71S
HAMMOND*       NOT AVBL
HOUMA*         CLOUDY    67  67  97 S7        29.74S FOG
PORT FOURCHON* CLEAR     68  66  94 S7        29.78F FOG

$$

LAZ041-044-053-054-230300-
SOUTHWEST LOUISIANA

CITY           SKY/WX    TMP DP  RH WIND       PRES   REMARKS
LAKE CHARLES   NOT AVBL
LAFAYETTE      CLOUDY    66  64  93 S7        29.69S FOG
PATTERSON      CLOUDY    66  64  94 S8        29.73R
SALT POINT       N/A     67  63  87 S6        29.71R
NEW IBERIA     FOG       66  65  96 S10       29.70S VSB 1/2
CHENAULT AIRPK CLOUDY    64  63  94 SW13      29.68R

$$

LAZ027-028-230300-
CENTRAL LOUISIANA

CITY           SKY/WX    TMP DP  RH WIND       PRES   REMARKS
FORT POLK      CLOUDY    64  62  91 S7        29.65R
ALEXANDRIA INT CLOUDY    64  61  90 S8        29.64R
ALEXANDRIA     CLOUDY    66  61  84 SW6       29.65R

$$

LAZ001-002-230300-
NORTHWEST LOUISIANA

CITY           SKY/WX    TMP DP  RH WIND       PRES   REMARKS
SHREVEPORT     CLOUDY    59  54  83 W5        29.63R
BARKSDALE AFB  NOT AVBL
DTN SHREVEPORT CLOUDY    59  52  77 SW3       29.63R

$$

LAZ014-016-230300-
NORTHEAST LOUISIANA

CITY           SKY/WX    TMP DP  RH WIND       PRES   REMARKS
MONROE         CLOUDY    57  57 100 CALM      29.64R FOG
TALLULAH       PTCLDY    63  59  87 S8        29.65S

$$




USA.gov is the U.S. government's official web portal to all federal, state and local government web resources and services.